Content
SEND FEEDBACK

Daily
Averages
Monthly
Summary
United States of America

TEMPIUTE MOUNTAIN, NEVADA


Home > North America > United States > Nevada
Elevation: 1462 meters     Latitude: 37 41N     Longitude: 115 43W

WEATHER
 
SELECT A DAY
Number of Records: 58,543;   Date Range: 5/26/05 - 5/2/14
 
SHARE

PRINT THIS DATA

[ ← Previous Day ]
WEATHER ALMANAC - 31 JANUARY, 2013
[ Next Day → ]
[ °F ]   °C
Weather ElementAverageHighLow
Temperature2.2 °C8.9 °C (1:56 pm)-2.8 °C (11:56 pm)
Dewpoint-2.3 °C-0.6 °C (12:56 pm)-3.9 °C (3:56 am)
Humidity74.3 %92 % (11:56 pm)50 % (1:56 pm)
Barometer1033.2 hPa1034.5 hPa (8:56 am)1032.2 hPa (2:56 pm)
Wind Speed9.3 km/h18.5 km/h (12:56 pm)
Weather ElementAverage
Visibility16.1 km
Wind DirectionSSE (164.8 °)

Weather ElementTotal
Precipitation---
Heating Degree Days15.3 (Base 18.3)
Averaged from 21 records on 31 January, 2013
WEATHER CONDITIONS BREAKOUT
WIND DIRECTION BREAKOUT
WEATHER BY HOUR - 31 JANUARY, 2013
[ °F ]   °C
Local TimeTemperatureDewpointHumidityBarometerVisibilityWind DirectionWind SpeedGust SpeedPrecipitationEventsConditions
1:56 AM-0.6 °C-3.3 °C82 %1033.9 hPa16.1 kmWSW (250°)9.3 km/hClear
2:56 AM0 °C-3.3 °C79 %1033.9 hPa16.1 kmEast (90°)9.3 km/hClear
3:56 AM-2.2 °C-3.9 °C88 %1033.5 hPa16.1 kmNW (310°)9.3 km/hClear
4:56 AM-0.6 °C-3.3 °C82 %1033.5 hPa16.1 kmNNW (340°)13 km/hClear
6:56 AM-1.7 °C-3.9 °C85 %1033.9 hPa16.1 kmSSE (160°)5.6 km/hClear
7:56 AM0.6 °C-2.8 °C78 %1034.2 hPa16.1 kmCalmClear
8:56 AM2.2 °C-2.2 °C73 %1034.5 hPa16.1 kmEast (100°)5.6 km/hClear
9:56 AM5 °C-1.1 °C65 %1034.5 hPa16.1 kmENE (60°)13 km/hClear
10:56 AM7.2 °C-1.7 °C53 %1034.2 hPa16.1 kmNE (40°)16.7 km/hClear
12:56 PM8.3 °C-0.6 °C54 %1032.8 hPa16.1 kmNE (50°)18.5 km/hClear
1:56 PM8.9 °C-1.1 °C50 %1032.5 hPa16.1 kmNE (50°)16.7 km/hClear
2:56 PM8.9 °C-1.1 °C50 %1032.2 hPa16.1 kmVariable7.4 km/hClear
3:56 PM8.3 °C-0.6 °C54 %1032.2 hPa16.1 kmENE (60°)7.4 km/hClear
4:56 PM6.1 °C-0.6 °C62 %1032.2 hPa16.1 kmNE (50°)5.6 km/hClear
5:56 PM0 °C-2.2 °C85 %1032.2 hPa16.1 kmNNW (330°)5.6 km/hClear
6:56 PM0 °C-2.2 °C85 %1032.2 hPa16.1 kmNW (320°)13 km/hClear
7:56 PM0 °C-2.2 °C85 %1032.2 hPa16.1 kmNW (320°)13 km/hClear
8:56 PM0 °C-2.2 °C85 %1032.5 hPa16.1 kmNNW (330°)9.3 km/hClear
9:56 PM-0.6 °C-2.8 °C85 %1032.8 hPa16.1 kmWNW (300°)7.4 km/hClear
10:56 PM-1.7 °C-3.3 °C89 %1032.5 hPa16.1 kmWNW (300°)9.3 km/hClear
11:56 PM-2.8 °C-3.9 °C92 %1032.5 hPa16.1 kmCalmClear
Hourly data recorded from KBJN, located 0 kilometers away from Tempiute Mountain, Nevada







STORIES FROM OUR PARTNERS